Погода в Вадьковке

Россия / Брянская область     52°33′34″N   33°19′07″E
темп.,
°C
ветер,
м/с
пор.,
м/с
влажн.,
%
обл.,
%
осадки,
мм/ч
давл.,
гПа
погр.,
м
28 сентября, вт
вт2800:00+6с37965 0.0 1025153
03:00+5с3595100 0.0 102597
06:00+6с379599 0.0 1025173
09:00+8ссв488996 0.0 1026406
12:00+8ссв369199 0.1 1027410
15:00+10всв5783100 0.7 1028594
18:00+8всв488599 0.1 1029466
21:00+7всв498779 0.1 1031479
29 сентября, ср
ср2900:00+7всв488870 0.0 1032402
03:00+5всв379397 0.0 1033195
06:00+5всв478997 0.0 1034365
09:00+7в477654 0.0 1034419
12:00+10в465715 0.0 10341264
15:00+12в44495 0.0 10331357
18:00+9всв336623 0.0 103443
21:00+6в337397 0.0 103428
30 сентября, чт
чт3000:00+5в2277100 0.0 103516
03:00+4всв22815 0.0 103510
06:00+3всв228340 0.0 103512
09:00+7в237085 0.0 1036176
12:00+11в235433 0.0 1035726
15:00+13в22495 0.0 10341088
18:00+10всв22655 0.0 103310
21:00+7вюв22783 0.0 103416
1 октября, пт
пт100:00+6вюв22873 0.0 103519
03:00+5вюв22900 0.0 103625
06:00+4вюв22900 0.0 103616
09:00+7вюв23780 0.0 1036180
12:00+12юв33620 0.0 1036767
15:00+14ююв22560 0.0 10351121
18:00+10юв11690 0.0 103410
21:00+8вюв22780 0.0 103512
2 октября, сб
сб200:00+7юв22820 0.0 103514
03:00+6юв22820 0.0 103418
06:00+5юв22830 0.0 103413
09:00+8юв35715 0.0 1034175
12:00+13ююв45552 0.0 1033794
15:00+15ююв45505 0.0 10321311
18:00+11юв33675 0.0 103127
21:00+9юв337435 0.0 103235